Weather History for Pottstown, PA

Change the Weather History Date:

Friday, February 15, 2013

  Actual Average (KRDG) Record (KRDG)
Temperature  
Mean Temperature 42 °F 32 °F  
Max Temperature 55 °F 41 °F 76 °F (1949)
Min Temperature 30 °F 23 °F -2 °F (1899)
Degree Days  
Heating Degree Days 22 33  
Month to date heating degree days 513  
Since 1 July heating degree days 3638  
Cooling Degree Days 0 0  
Month to date cooling degree days 0  
Year to date cooling degree days 0  
Moisture  
Dew Point 31 °F    
Average Humidity 73    
Maximum Humidity 100    
Minimum Humidity 42    
Precipitation  
Precipitation 0.16 in 0.09 in 1.15 in (1984)
Month to date precipitation 1.30  
Year to date precipitation 4.35  
Sea Level Pressure  
Sea Level Pressure 29.99 in    
Wind  
Wind Speed 3 mph (WNW)    
Max Wind Speed 12 mph    
Max Gust Speed 20 mph    
Visibility 8 miles    
Events Rain , Snow    
T = Trace of Precipitation, MM = Missing Value Source: NWS Daily Summary

Daily Weather History Graph

Daily Weather History Graph

Search for Another Location

Airport:

Trip Planner

Search our weather history database for the weather conditions in past years. The results will help you decide how hot, cold, wet, or windy it might be!

Date:

Astronomy

Feb. 15, 2013 Rise Set
Actual Time 6:55 AM EST 5:38 PM EST
Civil Twilight 6:27 AM EST 6:05 PM EST
Nautical Twilight 5:55 AM EST 6:37 PM EST
Astronomical Twilight 5:24 AM EST 7:09 PM EST
Moon 9:29 AM EST (2/15) 11:37 PM EST (2/15)
Length of Visible Light 11h 38m
Length of Day
10h 42m
Waxing Crescent, 30% of the Moon is Illuminated
Feb 15
Waxing Crescent
Feb 17
First Quarter
Feb 25
Full
Mar 4
Last Quarter
Mar 11
New

Hourly Weather History & Observations

Time (EST) Temp. Windchill Dew Point Humidity Pressure Visibility Wind Dir Wind Speed Gust Speed Precip Events Conditions
12:54 AM 33.1 °F - 27.0 °F 78% 30.01 in 8.0 mi Calm Calm - N/A   Mostly Cloudy
1:54 AM 33.1 °F - 27.0 °F 78% 30.00 in 8.0 mi Calm Calm - N/A   Scattered Clouds
2:54 AM 33.1 °F - 27.0 °F 78% 29.99 in 10.0 mi Calm Calm - N/A   Clear
3:54 AM 30.9 °F - 27.0 °F 85% 29.99 in 10.0 mi Calm Calm - N/A   Scattered Clouds
4:54 AM 35.1 °F - 28.9 °F 78% 29.99 in 10.0 mi Calm Calm - N/A   Clear
5:54 AM 33.1 °F - 28.0 °F 82% 29.99 in 9.0 mi Calm Calm - N/A   Clear
6:54 AM 32.0 °F 28.7 °F 28.9 °F 88% 30.00 in 7.0 mi SSE 3.5 mph - N/A   Overcast
7:54 AM 34.0 °F - 30.0 °F 85% 30.02 in 7.0 mi Calm Calm - N/A   Clear
8:54 AM 39.0 °F - 32.0 °F 76% 30.02 in 10.0 mi Calm Calm - N/A   Clear
9:54 AM 44.1 °F 41.5 °F 32.0 °F 63% 30.02 in 10.0 mi West 4.6 mph - N/A   Clear
10:54 AM 50.0 °F - 33.1 °F 52% 30.01 in 10.0 mi West 4.6 mph - N/A   Clear
12:54 PM 54.0 °F - 33.1 °F 45% 29.96 in 10.0 mi SW 9.2 mph - N/A   Partly Cloudy
1:54 PM 55.9 °F - 33.1 °F 42% 29.94 in 10.0 mi WSW 8.1 mph 19.6 mph N/A   Scattered Clouds
2:54 PM 55.9 °F - 33.1 °F 42% 29.94 in 10.0 mi WSW 5.8 mph - N/A   Mostly Cloudy
3:54 PM 53.1 °F - 32.0 °F 45% 29.93 in 10.0 mi WNW 10.4 mph - N/A   Mostly Cloudy
4:54 PM 51.1 °F - 32.0 °F 48% 29.93 in 10.0 mi NW 6.9 mph - N/A   Overcast
5:54 PM 48.0 °F - 28.9 °F 48% 29.93 in 10.0 mi NW 4.6 mph - N/A   Overcast
6:54 PM 48.0 °F - 28.0 °F 46% 29.93 in 10.0 mi North 3.5 mph - N/A   Overcast
7:54 PM 46.0 °F 41.9 °F 27.0 °F 47% 29.95 in 10.0 mi WNW 8.1 mph - N/A   Overcast
8:54 PM 42.1 °F 35.7 °F 32.0 °F 67% 29.96 in 10.0 mi NNW 11.5 mph 18.4 mph N/A   Overcast
9:29 PM 39.2 °F 32.0 °F 33.8 °F 81% 30.00 in 7.0 mi WNW 11.5 mph 16.1 mph 0.00 in Rain Light Rain
9:46 PM 37.4 °F 32.1 °F 35.6 °F 93% 30.01 in 4.0 mi WNW 6.9 mph - 0.03 in Rain Rain
9:54 PM 37.9 °F 33.5 °F 35.1 °F 89% 30.01 in 3.0 mi WNW 5.8 mph - 0.04 in Rain Rain
10:27 PM 35.6 °F 31.7 °F 33.8 °F 93% 30.01 in 5.0 mi WNW 4.6 mph - 0.04 in Rain Light Rain
10:54 PM 35.1 °F 31.0 °F 33.1 °F 92% 30.01 in 4.0 mi WNW 4.6 mph - 0.07 in Rain Light Rain
11:09 PM 33.8 °F 29.6 °F 33.8 °F 100% 30.01 in 2.0 mi NW 4.6 mph - 0.02 in Snow Light Snow
11:19 PM 33.8 °F 30.8 °F 33.8 °F 100% 30.01 in 1.8 mi NW 3.5 mph - 0.02 in Snow Light Snow
11:45 PM 33.8 °F - 33.8 °F 100% 30.00 in 1.8 mi Calm Calm - 0.04 in Snow Light Snow
11:54 PM 33.1 °F - 33.1 °F 100% 30.00 in 1.8 mi Calm Calm - 0.05 in Snow Light Snow